www.pogodaiklimat.ru

Погода и климат >> Архив погоды >> Норвегия >> Хаммерфест аэропорт


ПОГОДА в Хаммерфест аэропорту

  • Прогноз погоды в Хаммерфест аэропорту
  • Монитор погоды в Хаммерфест аэропорту

АРХИВ ПОГОДЫ в Хаммерфест аэропорту

Время (UTC), дата Ветер
(напр.,м/с)
 
Видим.   Явления Облачность Т
(С)
Тd
(С)
f
(%)
Тe
(С)
Тes
(С)
Комфортность P
(гПа)
Po
(гПа)
Тmin
(С)
Tmax
(С)
R
(мм)
R24
(мм)
S
(см)
04 9.01 Ю 2
{3}
н/о н/о -2.3 -3.8 89 -6 -6 1009.6 999.5
05 9.01 ЮВ 1
{4}
н/о н/о -3.0 -4.1 92 -5 -5 1009.9 999.8
06 9.01 Ю 2
{4}
н/о н/о -2.5 -3.7 91 -7 -7 1010.1 1000.0 -5.6 -1.5
08 9.01 Ю 3
{6}
н/о н/о -1.1 -2.5 90 -6 -6 1010.6 1000.5
07 9.01 Ю 2
{4}
н/о н/о -1.9 -3.0 92 -6 -6 1010.2 1000.1
09 9.01 Ю 1
{4}
н/о н/о -0.5 -2.3 88 -3 -3 1010.6 1000.6
10 9.01 Ю 2
{4}
н/о н/о -1.0 -2.9 87 -5 -5 1010.3 1000.3
11 9.01 Ю 4
{7}
н/о н/о -0.1 -1.9 88 -6 -6 1010.3 1000.3
12 9.01 Ю 5
{7}
н/о н/о +0.1 -2.3 84 -6 -6 1009.8 999.8
14 9.01 ЮЗ 9
{13}
н/о н/о +0.3 -0.5 94 -8 -8 1009.6 999.6 0.2
13 9.01 Ю 6
{8}
н/о н/о +0.1 -2.8 81 -6 -6 1009.3 999.3
15 9.01 ЮЗ 6
{13}
н/о н/о 0.0 -0.1 99 -7 -7 1009.8 999.8 1
16 9.01 З 7
{13}
н/о н/о 0.0 -0.4 97 -7 -7 1010.0 1000.0 0.5
17 9.01 З 9
{11}
н/о н/о -0.2 -1.3 92 -8 -8 1009.7 999.6 0.4
18 9.01 З 10
{15}
н/о н/о -0.9 -1.6 95 -10 -10 1009.6 999.6 -3.3 +0.8
20 9.01 З 8
{12}
н/о н/о -0.3 -2.8 83 -8 -8 1008.6 998.6
19 9.01 З 9
{13}
н/о н/о -0.4 -2.9 83 -8 -8 1009.1 999.1
21 9.01 З 6
{11}
н/о н/о -0.4 -3.4 80 -7 -7 1008.1 998.1
22 9.01 Ю 4
{9}
н/о н/о -0.8 -3.0 85 -6 -6 1006.8 996.8
23 9.01 Ю 6
{8}
н/о н/о -0.8 -3.5 82 -8 -8 1005.7 995.8
00 10.01 Ю 5
{13}
н/о н/о -1.0 -4.1 79 -7 -7 1004.4 994.4
02 10.01 Ю 7
{11}
н/о н/о -1.2 -4.9 76 -8 -8 1001.0 991.0
01 10.01 Ю 6
{9}
н/о н/о -0.9 -4.3 78 -8 -8 1002.7 992.7
03 10.01 Ю 6
{10}
н/о н/о -1.3 -5.7 72 -8 -8 998.5 988.6 0.1
04 10.01 Ю 7
{13}
н/о н/о -1.9 -6.3 72 -9 -9 996.1 986.2
05 10.01 Ю 9
{13}
н/о н/о -1.9 -5.5 76 -10 -10 992.9 983.0
06 10.01 Ю 8
{15}
н/о н/о -2.1 -3.7 89 -10 -10 989.8 979.9 -2.1 0.0 0.2
08 10.01 Ю 11
{18}
н/о н/о -1.8 -2.7 94 -11 -11 983.4 973.6 0.4
07 10.01 Ю 11
{17}
н/о н/о -2.1 -3.2 92 -11 -11 986.6 976.8 0.2
09 10.01 Ю 13
{19}
н/о н/о -1.2 -2.5 91 -11 -11 980.5 970.8 0.2
10 10.01 Ю 13
{21}
н/о н/о -0.7 -1.8 92 -10 -10 977.6 967.9 0.5
11 10.01 Ю 12
{20}
н/о н/о -0.2 -1.3 92 -9 -9 975.5 965.9 0.7
12 10.01 Ю 12
{21}
н/о н/о +0.1 -1.9 86 -9 -9 973.1 963.5 0.2
14 10.01 Ю 12
{19}
н/о н/о +1.3 -1.9 79 -7 -7 968.7 959.2 0.2
13 10.01 Ю 12
{18}
н/о н/о +0.8 -1.9 82 -8 -8 971.2 961.6 0.4
15 10.01 Ю 8
{19}
н/о н/о +0.5 -1.4 87 -7 -7 968.9 959.3 1
16 10.01 Ю 7
{10}
н/о н/о 0.0 -0.2 99 -7 -7 968.4 958.8 2
17 10.01 З 12
{19}
н/о н/о 0.0 -0.1 99 -9 -9 968.3 958.7 2
18 10.01 З 14
{20}
н/о н/о +0.2 -1.8 86 -9 -9 967.5 957.9 -2.1 +1.7 0.1
20 10.01 З 12
{18}
н/о н/о -1.1 -1.5 97 -11 -11 966.2 956.6 0.7
19 10.01 ЮЗ 8
{21}
н/о н/о -0.3 -1.2 94 -8 -8 966.5 956.9 0.6
21 10.01 З 6
{15}
н/о н/о -0.9 -1.0 99 -8 -8 964.9 955.3 1
22 10.01 ЮЗ 10 н/о н/о -1.0 -2.1 92 -10 -10 964.0 954.4 0.2
23 10.01 Ю 7 н/о н/о -1.1 -3.6 83 -8 -8 962.9 953.3
00 11.01 Ю 7
{21}
н/о н/о -0.5 -3.2 82 -8 -8 961.4 951.9
02 11.01 Ю 7
{13}
н/о н/о -0.8 -3.5 82 -8 -8 959.9 950.4 0.3
01 11.01 Ю 9
{13}
н/о н/о -0.9 -4.2 78 -9 -9 959.9 950.3
03 11.01 Ю 9
{12}
н/о н/о -0.9 -4.0 79 -9 -9 959.0 949.5 0.5
04 11.01 Ю 5
{13}
н/о н/о -0.9 -3.7 81 -7 -7 959.1 949.6
05 11.01 Ю 4
{7}
н/о н/о -0.8 -3.8 80 -6 -6 959.9 950.3
06 11.01 ЮВ 1
{13}
н/о н/о -2.0 -3.8 87 -4 -4 960.8 951.2 -2.0 +0.4 0.2
08 11.01 С 2
{4}
н/о н/о -3.1 -4.2 92 -7 -7 963.8 954.2
07 11.01 штиль 0
{2}
н/о н/о -4.9 -6.4 89 -6 -6 962.3 952.6
09 11.01 З 1
{4}
н/о н/о -1.6 -2.2 96 -4 -4 965.4 955.7 1
10 11.01 С 7
{12}
н/о н/о +1.3 -2.6 75 -5 -5 966.4 956.9
11 11.01 СЗ 6
{12}
н/о н/о +1.6 -2.9 72 -4 -4 966.8 957.3
12 11.01 СЗ 4
{18}
н/о н/о +0.4 -0.2 96 -5 -5 967.2 957.6 0.6
14 11.01 С 14
{22}
н/о н/о +1.4 -0.2 89 -7 -7 969.8 960.2
13 11.01 С 12
{18}
н/о н/о +1.4 -0.8 85 -7 -7 968.7 959.1 0.5
15 11.01 С 15
{25}
н/о н/о +0.7 -0.7 90 -9 -9 971.3 961.8 0.8
16 11.01 СЗ 15
{23}
н/о н/о +0.9 -1.6 83 -8 -8 972.5 962.9 2
17 11.01 С 16
{29}
н/о н/о +0.5 -1.9 84 -9 -9 973.1 963.5 2
18 11.01 С 13
{31}
н/о н/о +0.1 -1.8 87 -9 -9 974.0 964.4 -5.0 +2.1 0.7
20 11.01 С 12
{30}
н/о н/о -0.1 -1.0 94 -9 -9 974.7 965.0 1
19 11.01 С 14
{34}
н/о н/о -0.2 -1.3 92 -10 -10 974.2 964.6 2
21 11.01 С 15
{30}
н/о н/о 0.0 -0.5 96 -10 -10 975.1 965.5 2
22 11.01 С 12
{28}
н/о н/о +0.3 -0.4 95 -9 -9 975.5 965.9 1
23 11.01 С 13
{26}
н/о н/о +0.7 0.0 95 -8 -8 975.5 965.8 2
00 12.01 С 15
{34}
н/о н/о +1.0 +0.2 94 -8 -8 975.7 966.1 1
02 12.01 СЗ 15
{24}
н/о н/о +1.0 -0.4 90 -8 -8 977.4 967.8 1
01 12.01 С 15
{24}
н/о н/о +1.5 +0.1 90 -8 -8 976.4 966.8 3
03 12.01 СЗ 15
{23}
н/о н/о +1.4 -0.7 86 -8 -8 977.8 968.1
04 12.01 СЗ 14
{23}
н/о н/о +1.5 -0.6 86 -7 -7 978.5 968.8 0.2
05 12.01 СЗ 13
{22}
н/о н/о +1.0 -0.3 91 -8 -8 978.7 969.0 1
06 12.01 СЗ 13
{24}
н/о н/о +1.0 -0.4 90 -8 -8 979.4 969.7 -0.3 +1.9 0.4
08 12.01 С 10
{17}
н/о н/о 0.0 -1.1 92 -8 -8 980.8 971.1 2
07 12.01 СЗ 9
{20}
н/о н/о +0.7 -1.0 88 -7 -7 980.1 970.4 1
09 12.01 С 12
{18}
н/о н/о +0.7 -4.1 70 -8 -8 981.0 971.3 0.2
10 12.01
{20}
н/о н/о +0.8 -4.2 69 981.4 971.7 0.6
11 12.01 С 10
{21}
н/о н/о +0.5 -3.7 73 -7 -7 981.8 972.1
12 12.01 С 10
{21}
н/о н/о +0.5 -3.6 74 -7 -7 981.8 972.1 0.2
14 12.01 С 8
{15}
н/о н/о +0.5 -4.9 67 -6 -6 982.1 972.4
13 12.01 СЗ 7
{14}
н/о н/о +0.4 -3.7 74 -6 -6 982.0 972.3
15 12.01 С 8
{15}
н/о н/о +0.8 -3.8 71 -6 -6 981.9 972.2
16 12.01 СЗ 9
{13}
н/о н/о +0.9 -4.7 66 -6 -6 981.8 972.1
17 12.01 СЗ 8
{14}
н/о н/о +0.6 -5.8 62 -6 -6 981.6 971.9
18 12.01 С 8
{15}
н/о н/о +0.7 -5.3 64 -6 -6 981.3 971.6 -0.6 +1.0
20 12.01 З 5
{14}
н/о н/о +0.6 -4.8 67 -5 -5 980.8 971.1
19 12.01 С 6
{15}
н/о н/о +0.4 -3.8 73 -6 -6 981.0 971.3 0.6
21 12.01 С 9
{13}
н/о н/о -0.5 -3.6 80 -8 -8 980.5 970.7
22 12.01 С 5
{11}
н/о н/о +0.3 -4.7 69 -5 -5 979.9 970.2
23 12.01 З 4
{9}
н/о н/о +0.1 -5.1 68 -5 -5 979.5 969.8
00 13.01 З 6
{15}
н/о н/о -0.6 -3.3 82 -7 -7 978.9 969.2
02 13.01 З 6
{10}
н/о н/о -0.5 -3.6 80 -7 -7 977.7 968.0
01 13.01 ЮЗ 6
{9}
н/о н/о -0.4 -2.9 83 -7 -7 978.3 968.6
03 13.01 ЮЗ 7
{11}
н/о н/о -0.7 -4.1 78 -8 -8 977.1 967.4
04 13.01 З 6
{10}
н/о н/о -1.1 -2.8 88 -8 -8 976.6 966.9 0.2
05 13.01 З 8
{10}
н/о н/о -1.5 -3.3 88 -9 -9 976.0 966.3
06 13.01 З 7
{11}
н/о н/о -1.3 -3.8 83 -9 -9 975.6 965.9 -1.7 +0.8
08 13.01 ЮЗ 4
{6}
н/о н/о -1.4 -3.8 84 -7 -7 975.2 965.5
07 13.01 ЮЗ 5
{9}
н/о н/о -1.6 -3.3 88 -8 -8 975.4 965.7
09 13.01 З 6
{9}
н/о н/о -1.0 -4.0 80 -8 -8 975.1 965.4
10 13.01 З 4
{10}
н/о н/о -1.8 -4.3 83 -8 -8 974.9 965.2
11 13.01 З 4
{6}
н/о н/о -1.9 -4.2 84 -8 -8 975.0 965.2
12 13.01 З 3
{10}
н/о н/о -2.1 -3.7 89 -7 -7 974.8 965.1 0.2
14 13.01 Ю 2
{4}
н/о н/о -2.5 -3.9 90 -7 -7 974.7 964.9 0.1
13 13.01 Ю 3
{5}
н/о н/о -2.0 -3.4 90 -7 -7 974.7 965.0
15 13.01 ЮВ 1
{3}
н/о н/о -2.8 -3.5 95 -5 -5 974.9 965.2 0.2
16 13.01 штиль 0
{2}
н/о н/о -3.1 -4.0 93 -4 -4 975.0 965.2 0.1
17 13.01 штиль 0
{3}
н/о н/о -3.5 -4.2 95 -5 -5 974.9 965.1
18 13.01 СВ 2
{5}
н/о н/о -4.4 -5.4 93 -9 -9 975.2 965.4 -4.5 -0.9
20 13.01 В 1
{2}
н/о н/о -4.6 -6.0 90 -7 -7 975.9 966.0
19 13.01 СВ 1
{3}
н/о н/о -4.1 -5.1 93 -7 -7 975.5 965.7
21 13.01 штиль 0
{2}
н/о н/о -4.0 -5.5 89 -5 -5 976.3 966.5
22 13.01 СВ 1
{2}
н/о н/о -5.2 -6.7 89 -8 -8 976.7 966.9
23 13.01 СВ 1
{3}
н/о н/о -5.2 -7.2 86 -8 -8 977.1 967.2
00 14.01 СВ 2
{3}
н/о н/о -5.7 -7.2 89 -10 -10 977.5 967.6
02 14.01 СВ 2
{2}
н/о н/о -5.9 -7.6 88 -10 -10 978.7 968.8
01 14.01 В 1
{3}
н/о н/о -6.1 -8.0 86 -8 -8 978.1 968.2
03 14.01 СВ 2
{3}
н/о н/о -6.3 -8.6 84 -11 -11 979.2 969.3
04 14.01 СВ 2
{3}
н/о н/о -6.1 -8.0 86 -10 -10 979.7 969.8
05 14.01 СВ 2
{3}
н/о н/о -7.0 -8.9 86 -11 -11 980.1 970.2
06 14.01 СВ 1
{3}
н/о н/о -5.4 -7.8 83 -8 -8 980.7 970.8 -7.2 -3.6
08 14.01 СВ 1
{3}
н/о н/о -3.7 -6.6 80 -6 -6 982.4 972.6
07 14.01 С 1
{4}
н/о н/о -4.2 -7.1 80 -6 -6 981.4 971.6
09 14.01 СВ 2
{5}
н/о н/о -4.2 -7.7 77 -8 -8 983.1 973.3
10 14.01 СВ 4
{6}
н/о н/о -3.0 -6.4 77 -9 -9 983.4 973.5
11 14.01 СВ 3
{4}
н/о н/о -4.7 -7.1 83 -10 -10 984.2 974.3
12 14.01 СВ 2
{6}
н/о н/о -5.4 -7.8 83 -10 -10 984.8 974.8
14 14.01 В 2
{3}
н/о н/о -5.4 -7.4 86 -10 -10 985.4 975.4
13 14.01 В 2
{3}
н/о н/о -5.4 -7.4 86 -10 -10 985.4 975.4
15 14.01 СВ 3
{4}
н/о н/о -5.1 -6.8 88 -11 -11 986.6 976.6
16 14.01 СВ 3
{3}
н/о н/о -5.4 -7.4 86 -11 -11 987.2 977.2
17 14.01 В 1
{3}
н/о н/о -5.6 -7.1 89 -8 -8 987.7 977.7
18 14.01 СВ 1
{4}
н/о н/о -3.9 -6.8 80 -6 -6 988.0 978.1 -7.0 -2.8
20 14.01 СВ 2
{3}
н/о н/о -5.5 -7.6 85 -10 -10 988.8 978.8
19 14.01 СВ 2
{3}
н/о н/о -5.5 -8.7 78 -10 -10 988.4 978.4
21 14.01 В 1
{3}
н/о н/о -5.8 -9.1 77 -8 -8 989.2 979.1
22 14.01 СВ 1
{3}
н/о н/о -6.3 -9.6 77 -9 -9 989.5 979.4
23 14.01 СВ 2
{3}
н/о н/о -5.6 -8.6 79 -10 -10 989.7 979.7
00 15.01 СВ 2
{4}
н/о н/о -6.5 -8.5 86 -11 -11 989.8 979.7
02 15.01 СВ 2
{3}
н/о н/о -6.3 -8.4 85 -11 -11 990.0 980.0
01 15.01 С 1
{3}
н/о н/о -4.1 -7.4 78 -6 -6 989.8 979.9
04 15.01 СВ 2
{3}
н/о н/о -5.9 -8.9 79 -10 -10 990.2 980.2
05 15.01 СВ 2
{3}
н/о н/о -6.3 -9.6 77 -11 -11 990.2 980.2
06 15.01 СВ 2
{3}
н/о н/о -6.3 -9.3 79 -11 -11 990.5 980.4 -7.4 -3.7
08 15.01 С 1
{4}
н/о н/о -5.5 -8.1 82 -8 -8 990.7 980.7
07 15.01 СВ 2
{3}
н/о н/о -6.7 -9.7 79 -11 -11 990.5 980.4
09 15.01 СВ 2
{5}
н/о н/о -5.5 -8.1 82 -10 -10 991.1 981.0
10 15.01 СВ 1
{3}
н/о н/о -6.3 -10.4 73 -8 -8 991.2 981.1
11 15.01 СВ 1
{3}
н/о н/о -5.9 -9.5 76 -8 -8 991.2 981.2
12 15.01 СВ 2
{5}
н/о н/о -6.1 -10.0 74 -10 -10 991.3 981.2
14 15.01 СВ 2
{3}
н/о н/о -7.1 -11.5 71 -11 -11 991.7 981.7
13 15.01 СВ 2
{3}
н/о н/о -6.2 -9.5 77 -10 -10 991.4 981.3
15 15.01 СВ 2
{4}
н/о н/о -7.1 -11.0 74 -11 -11 992.1 982.0
16 15.01 СВ 2
{2}
н/о н/о -6.8 -10.1 77 -11 -11 992.2 982.1
17 15.01 СВ 2
{3}
н/о н/о -7.1 -10.5 77 -11 -11 992.3 982.2
18 15.01 СВ 2
{4}
н/о н/о -5.8 -9.1 77 -10 -10 992.3 982.3 -7.6 -4.4
20 15.01 С 1
{2}
н/о н/о -7.1 -10.4 77 -9 -9 992.8 982.7
19 15.01 В 1
{3}
н/о н/о -6.3 -9.7 77 -9 -9 992.5 982.5
21 15.01 СВ 1
{2}
н/о н/о -6.2 -9.3 79 -8 -8 992.9 982.8
22 15.01 СВ 1
{3}
н/о н/о -6.5 -8.9 83 -9 -9 993.1 983.0
23 15.01 СВ 1
{3}
н/о н/о -6.3 -9.3 79 -9 -9 993.2 983.2
00 16.01 СВ 2
{3}
н/о н/о -6.4 -9.1 81 -11 -11 993.3 983.2
02 16.01 СВ 2
{3}
н/о н/о -5.8 -8.7 80 -10 -10 993.6 983.6
01 16.01 СВ 2
{3}
н/о н/о -5.7 -8.7 79 -10 -10 993.4 983.4
03 16.01 СВ 1
{2}
н/о н/о -6.3 -9.3 79 -9 -9 993.8 983.7

 

Местоположение метеостанции Хаммерфест аэропорт (Норвегия): широта 70.68 долгота 23.38 высота над уровнем моря 81 м.

В архиве по умолчанию представлена погода в Хаммерфест аэропорту за последнюю неделю. Архивные данные за месяц целиком и за предыдущие месяцы, начиная с января 2011 года, Вы можете получить, выбрав интересующий диапазон дат из раскрывающегося списка и нажав кнопку "Ввод!".


*Определитесь, кто Вы:
робот инопланетянин человек

Внимание! Время в таблицах - всемирное. Для получения местного времени необходимо прибавить поправку, которая равна 1 ч.

Смотрите также архив погоды в соседних городах и на ближайших метеорологических станциях:

Погода на Хасвике (Норвегия) (36 км)
Погода в Рогнсундете (Норвегия) (37 км)
Погода в Хасвик аэропорту (Норвегия) (50 км)
Погода на Маяке Fruholmen (Норвегия) (51 км)
Погода в Альта аэропорту (Норвегия) (78 км)
Погода в Банаке (Норвегия) (92 км)
Погода в Хоннигсвог аэропорту (Норвегия) (102 км)
Погода в Суоловуопми-Лулит (Норвегия) (122 км)
Погода в Сёрхьюсен аэропорту (Норвегия) (134 км)
Погода в Карасйоке (Норвегия) (148 км)

Пояснения к столбцам:

Ветер - указаны скорость ветра в м/с - средняя за 10 мин, порывы в срок и между сроками (в фигурных скобках) и направление, откуда дует ветер: С - северный, СВ - северо-восточный, В - восточный, ЮВ - юго-восточный, Ю - южный, ЮЗ - юго-западный, З - западный, СЗ - северо-западный.
Видимость - горизонтальная дальность видимости в метрах или километрах. При видимости от 1 до 10 км при отсутствии осадков обычно наблюдается дымка, при ухудшении видимости до 1 км и менее - туман. В сухую погоду видимость может ухудшаться дымом, пылью или мглою.
Явления - указаны атмосферные явления, наблюдавшиеся в срок или в последний час перед сроком; фигурными скобками обозначены явления, наблюдавшиеся между сроками (за 1-3 часа до срока); квадратными скобками обозначены град или гололедные отложения с указанием их диаметра в мм.
Облачность - указаны через наклонную черту общая и нижняя облачность в баллах и высота нижней границы облаков в метрах; квадратными скобками обозначены формы облаков: Ci - перистые, Cs - перисто-слоистые, Cc - перисто-кучевые, Ac - высококучевые, As - высокослоистые, Sc - слоисто-кучевые, Ns - слоисто-дождевые, Cu - кучевые, Cb - кучево-дождевые. Подробнее классификацию облаков см. в Атласе облаков (PDF).
T - Температура воздуха - температура, измеренная на высоте 2 м над землей.
Td - Температура точки росы - температура, при понижении до которой содержащийся в воздухе водяной пар достигнет насыщения.
f - Относительная влажность воздуха - влажноcть воздуха, измеренная на высоте 2 м над землей.
Te - Эффективная температура - температура, которую ощущает одетый по сезону человек в тени. Характеристика душности погоды. При расчете учитывается влияние влажности воздуха и скорости ветра на теплоощущения человека.
Tes - Эффективная температура на солнце - температура, которую ощущает человек, с поправкой на солнечный нагрев. Характеристика знойности погоды. Зависит от высоты солнца над горизонтом, облачности и скорости ветра. Ночью, в пасмурную погоду, а также при ветре 12 м/с и более поправка равна нулю.
P - Атмосферное давление - приведенное к уровню моря атмосферное давление.
Po - Атмосферное давление - измеренное на уровне метеостанции атмосферное давление.
Tmin - Минимальная температура - минимум температуры воздуха на высоте 2 м над землей.
Tmax - Максимальная температура - максимум температуры воздуха на высоте 2 м над землей.
R - Количество осадков - Количество выпавших осадков за период времени, мм. При наведении курсора мыши на число - период времени, за который выпало указанное количество осадков.
R24 - Количество осадков - Количество выпавших осадков за 24 часа, мм.
S - Снежный покров - Высота снежного покрова, см. При наведении курсора мыши на число - состояние снежного покрова и степень покрытия местности в баллах.